Location: *
(33.8649°S, 62.1526°E)
Time: 13:14:34
(UTC+00:00)

Cosmos 1441 Rocket - Pass Details

Date: 17 January 2021
Orbit: 495 x 540 km, 81.1° (Epoch: 03 March)

Event Time Altitude Azimuth Distance (km) Brightness Sun altitude
Rises 15:37:11 0° 178° (S) 2,620 7.2 -6.8°
Reaches altitude 10° 15:39:28 10° 168° (SSE) 1,731 6.1 -7.2°
Maximum altitude 15:42:56 33° 102° (ESE) 874 4.0 -7.8°
Drops below altitude 10° 15:46:22 10° 36° (NE) 1,722 5.3 -8.4°
Enters shadow 15:46:33 - 35° (NE) 1,790 5.4 -8.5°
